Time,TemperatureF,DewpointF,PressureIn,WindDirection,WindDirectionDegrees,WindSpeedMPH,WindSpeedGustMPH,Humidity,HourlyPrecipIn,Conditions,Clouds,dailyrainin,SolarRadiationWatts/m^2,SoftwareType,DateUTC
2013-07-23 00:00:00,76.7,72.2,29.76,WSW,243,0.0,5.0,86,0.00,,OVC065,0.00,0.00,VWS V14.01,2013-07-23 04:00:00,
2013-07-23 00:01:00,74.9,71.1,29.76,SW,225,0.0,5.0,88,0.00,,CLR,0.00,0.00,VWS V14.01,2013-07-23 04:01:00,
2013-07-23 00:06:00,74.9,71.1,29.76,SW,230,0.0,2.0,88,0.00,,CLR,0.00,0.00,VWS V14.01,2013-07-23 04:06:00,
2013-07-23 00:11:00,74.9,71.1,29.76,SW,230,0.0,3.0,88,0.00,,CLR,0.00,0.00,VWS V14.01,2013-07-23 04:11:00,
2013-07-23 00:16:00,74.7,70.9,29.75,SSW,198,0.0,5.0,88,0.00,,CLR,0.00,0.00,VWS V14.01,2013-07-23 04:16:00,
2013-07-23 00:21:00,74.6,70.8,29.75,SSW,205,0.0,5.0,88,0.00,,CLR,0.00,0.00,VWS V14.01,2013-07-23 04:21:00,
2013-07-23 00:26:00,74.6,71.2,29.75,West,275,0.0,5.0,89,0.00,,CLR,0.00,0.00,VWS V14.01,2013-07-23 04:26:00,
2013-07-23 00:30:00,76.0,71.5,29.75,East,97,0.0,7.0,86,0.00,,OVC065,0.00,0.00,VWS V14.01,2013-07-23 04:30:00,
2013-07-23 00:31:00,74.6,71.5,29.75,West,274,0.0,0.0,90,0.00,,CLR,0.00,0.00,VWS V14.01,2013-07-23 04:31:00,
2013-07-23 00:36:00,74.6,71.2,29.75,West,274,0.0,1.0,89,0.00,,CLR,0.00,0.00,VWS V14.01,2013-07-23 04:36:00,
2013-07-23 00:41:00,74.4,71.3,29.75,West,273,2.0,4.0,90,0.00,,CLR,0.00,0.00,VWS V14.01,2013-07-23 04:41:00,
2013-07-23 00:46:00,74.4,71.3,29.74,WSW,257,4.0,5.0,90,0.00,,CLR,0.00,0.00,VWS V14.01,2013-07-23 04:46:00,
2013-07-23 00:51:00,74.4,71.6,29.74,WSW,257,1.0,5.0,91,0.00,,CLR,0.00,0.00,VWS V14.01,2013-07-23 04:51:00,
2013-07-23 00:56:00,74.2,71.4,29.74,WSW,258,0.0,5.0,91,0.00,,CLR,0.00,0.00,VWS V14.01,2013-07-23 04:56:00,
2013-07-23 01:00:00,74.9,71.1,29.76,SW,225,0.0,5.0,88,0.00,,OVC065,0.00,0.00,VWS V14.01,2013-07-23 05:00:00,
2013-07-23 01:01:00,74.2,71.4,29.74,WSW,258,0.0,0.0,91,0.00,,CLR,0.00,0.00,VWS V14.01,2013-07-23 05:01:00,
2013-07-23 01:06:00,74.2,71.4,29.74,WSW,258,0.0,0.0,91,0.00,,CLR,0.00,0.00,VWS V14.01,2013-07-23 05:06:00,
2013-07-23 01:11:00,74.0,71.2,29.74,WSW,258,0.0,0.0,91,0.00,,CLR,0.00,0.00,VWS V14.01,2013-07-23 05:11:00,
2013-07-23 01:16:00,74.2,71.4,29.73,WSW,258,0.0,0.0,91,0.00,,CLR,0.00,0.00,VWS V14.01,2013-07-23 05:16:00,
2013-07-23 01:21:00,74.2,71.7,29.73,WSW,258,0.0,0.0,92,0.00,,CLR,0.00,0.00,VWS V14.01,2013-07-23 05:21:00,
2013-07-23 01:26:00,74.4,71.9,29.73,WSW,258,0.0,0.0,92,0.00,,CLR,0.00,0.00,VWS V14.01,2013-07-23 05:26:00,
2013-07-23 01:30:00,74.6,71.5,29.75,West,274,0.0,5.0,90,0.00,,OVC065,0.00,0.00,VWS V14.01,2013-07-23 05:30:00,
2013-07-23 01:31:00,74.4,72.2,29.73,WSW,258,0.0,0.0,93,0.00,,CLR,0.00,0.00,VWS V14.01,2013-07-23 05:31:00,
2013-07-23 01:36:00,74.2,71.7,29.73,WSW,257,0.0,1.0,92,0.00,,CLR,0.00,0.00,VWS V14.01,2013-07-23 05:36:00,
2013-07-23 01:41:00,74.2,72.1,29.73,WSW,258,0.0,1.0,93,0.00,,CLR,0.00,0.00,VWS V14.01,2013-07-23 05:41:00,
2013-07-23 01:46:00,74.2,72.1,29.73,West,267,4.0,4.0,93,0.00,,CLR,0.00,0.00,VWS V14.01,2013-07-23 05:46:00,
2013-07-23 01:51:00,74.2,72.1,29.73,West,268,0.0,4.0,93,0.00,,CLR,0.00,0.00,VWS V14.01,2013-07-23 05:51:00,
2013-07-23 01:56:00,74.4,72.6,29.73,West,265,0.0,4.0,94,0.00,,CLR,0.00,0.00,VWS V14.01,2013-07-23 05:56:00,
2013-07-23 02:00:00,74.2,71.4,29.74,WSW,258,0.0,5.0,91,0.00,,OVC065,0.00,0.00,VWS V14.01,2013-07-23 06:00:00,
2013-07-23 02:01:00,74.2,72.1,29.73,WSW,257,2.0,3.0,93,0.00,,CLR,0.00,0.00,VWS V14.01,2013-07-23 06:01:00,
2013-07-23 02:06:00,74.2,72.1,29.73,WSW,258,0.0,4.0,93,0.00,,CLR,0.00,0.00,VWS V14.01,2013-07-23 06:06:00,
2013-07-23 02:11:00,74.0,71.8,29.73,West,260,2.0,5.0,93,0.00,,CLR,0.00,0.00,VWS V14.01,2013-07-23 06:11:00,
2013-07-23 02:16:00,74.0,71.8,29.72,WSW,250,0.0,5.0,93,0.00,,CLR,0.00,0.00,VWS V14.01,2013-07-23 06:16:00,
2013-07-23 02:21:00,74.2,72.1,29.72,WSW,254,3.0,6.0,93,0.00,,CLR,0.00,0.00,VWS V14.01,2013-07-23 06:21:00,
2013-07-23 02:26:00,74.2,71.7,29.72,West,260,0.0,6.0,92,0.00,,CLR,0.00,0.00,VWS V14.01,2013-07-23 06:26:00,
2013-07-23 02:30:00,74.4,72.2,29.73,WSW,258,0.0,1.0,93,0.00,,OVC065,0.00,0.00,VWS V14.01,2013-07-23 06:30:00,
2013-07-23 02:31:00,74.2,71.4,29.72,West,259,0.0,6.0,91,0.00,,CLR,0.00,0.00,VWS V14.01,2013-07-23 06:31:00,
2013-07-23 02:35:00,74.0,71.5,29.72,West,260,0.0,2.0,92,0.00,,CLR,0.00,0.00,VWS V14.01,2013-07-23 06:35:00,
2013-07-23 02:40:00,73.9,71.1,29.72,West,260,2.0,2.0,91,0.00,,CLR,0.00,0.00,VWS V14.01,2013-07-23 06:40:00,
2013-07-23 02:45:00,74.0,71.2,29.73,West,259,0.0,3.0,91,0.00,,CLR,0.00,0.00,VWS V14.01,2013-07-23 06:45:00,
2013-07-23 02:50:00,74.0,70.9,29.73,West,259,0.0,3.0,90,0.00,,CLR,0.00,0.00,VWS V14.01,2013-07-23 06:50:00,
2013-07-23 02:55:00,73.9,70.5,29.73,West,259,0.0,3.0,89,0.00,,CLR,0.00,0.00,VWS V14.01,2013-07-23 06:55:00,
2013-07-23 03:00:00,73.9,69.8,29.73,West,259,0.0,3.0,87,0.00,,CLR,0.00,0.00,VWS V14.01,2013-07-23 07:00:00,
2013-07-23 03:05:00,73.9,69.8,29.73,West,267,0.0,5.0,87,0.00,,CLR,0.00,0.00,VWS V14.01,2013-07-23 07:05:00,
2013-07-23 03:10:00,74.0,69.2,29.73,West,267,0.0,5.0,85,0.00,,CLR,0.00,0.00,VWS V14.01,2013-07-23 07:10:00,
2013-07-23 03:15:00,74.2,69.1,29.72,WSW,255,2.0,6.0,84,0.00,,CLR,0.00,0.00,VWS V14.01,2013-07-23 07:15:00,
2013-07-23 03:20:00,74.2,68.7,29.72,West,259,0.0,6.0,83,0.00,,CLR,0.00,0.00,VWS V14.01,2013-07-23 07:20:00,
2013-07-23 03:25:00,74.0,68.9,29.72,West,259,0.0,6.0,84,0.00,,CLR,0.00,0.00,VWS V14.01,2013-07-23 07:25:00,
2013-07-23 03:30:00,74.0,69.2,29.72,West,259,0.0,6.0,85,0.00,,CLR,0.00,0.00,VWS V14.01,2013-07-23 07:30:00,
2013-07-23 03:35:00,74.0,68.9,29.72,WSW,258,0.0,3.0,84,0.00,,CLR,0.00,0.00,VWS V14.01,2013-07-23 07:35:00,
2013-07-23 03:40:00,73.9,68.8,29.72,WSW,258,0.0,4.0,84,0.00,,CLR,0.00,0.00,VWS V14.01,2013-07-23 07:40:00,
2013-07-23 03:45:00,73.7,68.6,29.72,West,266,0.0,4.0,84,0.00,,CLR,0.00,0.00,VWS V14.01,2013-07-23 07:45:00,
2013-07-23 03:50:00,73.9,68.8,29.72,West,264,1.0,4.0,84,0.00,,CLR,0.00,0.00,VWS V14.01,2013-07-23 07:50:00,
2013-07-23 03:55:00,73.9,68.4,29.72,West,263,0.0,4.0,83,0.00,,CLR,0.00,0.00,VWS V14.01,2013-07-23 07:55:00,
2013-07-23 04:00:00,73.9,67.7,29.72,West,262,5.0,10.0,81,0.00,,CLR,0.00,0.00,VWS V14.01,2013-07-23 08:00:00,
2013-07-23 04:05:00,73.9,67.7,29.72,WSW,248,3.0,5.0,81,0.00,,CLR,0.00,0.00,VWS V14.01,2013-07-23 08:05:00,
2013-07-23 04:10:00,74.0,68.5,29.72,WSW,258,0.0,5.0,83,0.00,,CLR,0.00,0.00,VWS V14.01,2013-07-23 08:10:00,
2013-07-23 04:15:00,73.9,68.1,29.73,WSW,258,0.0,5.0,82,0.00,,CLR,0.00,0.00,VWS V14.01,2013-07-23 08:15:00,
2013-07-23 04:20:00,73.7,67.9,29.73,West,259,0.0,5.0,82,0.00,,CLR,0.00,0.00,VWS V14.01,2013-07-23 08:20:00,
2013-07-23 04:25:00,73.5,68.0,29.73,WSW,258,0.0,5.0,83,0.00,,CLR,0.00,0.00,VWS V14.01,2013-07-23 08:25:00,
2013-07-23 04:30:00,73.5,68.7,29.73,West,259,0.0,5.0,85,0.00,,CLR,0.00,0.00,VWS V14.01,2013-07-23 08:30:00,
2013-07-23 04:35:00,73.7,68.2,29.73,West,276,0.0,5.0,83,0.00,,CLR,0.00,0.00,VWS V14.01,2013-07-23 08:35:00,
2013-07-23 04:40:00,73.7,67.9,29.73,West,261,0.0,5.0,82,0.00,,CLR,0.00,0.00,VWS V14.01,2013-07-23 08:40:00,
2013-07-23 04:45:00,73.5,67.3,29.74,West,261,2.0,5.0,81,0.00,,CLR,0.00,0.00,VWS V14.01,2013-07-23 08:45:00,
2013-07-23 04:50:00,73.5,68.0,29.74,West,262,0.0,5.0,83,0.00,,CLR,0.00,0.00,VWS V14.01,2013-07-23 08:50:00,
2013-07-23 04:55:00,73.3,67.8,29.74,West,263,0.0,5.0,83,0.00,,CLR,0.00,0.00,VWS V14.01,2013-07-23 08:55:00,
2013-07-23 05:00:00,73.2,68.1,29.74,WSW,257,0.0,6.0,84,0.00,,CLR,0.00,0.00,VWS V14.01,2013-07-23 09:00:00,
2013-07-23 05:05:00,73.0,67.9,29.74,WSW,257,3.0,5.0,84,0.00,,CLR,0.00,0.00,VWS V14.01,2013-07-23 09:05:00,
2013-07-23 05:10:00,73.0,68.6,29.74,West,268,3.0,5.0,86,0.00,,CLR,0.00,0.00,VWS V14.01,2013-07-23 09:10:00,
2013-07-23 05:15:00,72.8,68.0,29.74,West,261,2.0,8.0,85,0.00,,CLR,0.00,0.00,VWS V14.01,2013-07-23 09:15:00,
2013-07-23 05:20:00,72.7,67.9,29.74,West,264,1.0,8.0,85,0.00,,CLR,0.00,0.00,VWS V14.01,2013-07-23 09:20:00,
2013-07-23 05:25:00,72.7,68.3,29.74,West,264,4.0,8.0,86,0.00,,CLR,0.00,0.00,VWS V14.01,2013-07-23 09:25:00,
2013-07-23 05:30:00,72.5,67.7,29.74,WSW,258,2.0,8.0,85,0.00,,CLR,0.00,0.00,VWS V14.01,2013-07-23 09:30:00,
2013-07-23 05:35:00,72.3,68.2,29.74,WSW,258,6.0,6.0,87,0.00,,CLR,0.00,0.00,VWS V14.01,2013-07-23 09:35:00,
2013-07-23 05:40:00,72.3,67.9,29.74,West,272,3.0,9.0,86,0.00,,CLR,0.00,0.00,VWS V14.01,2013-07-23 09:40:00,
2013-07-23 05:45:00,72.3,67.5,29.74,WSW,252,3.0,9.0,85,0.00,,CLR,0.00,0.00,VWS V14.01,2013-07-23 09:45:00,
2013-07-23 05:50:00,72.3,67.5,29.74,West,259,0.0,9.0,85,0.00,,CLR,0.00,0.00,VWS V14.01,2013-07-23 09:50:00,
2013-07-23 05:55:00,72.1,67.0,29.74,West,259,0.0,9.0,84,0.00,,CLR,0.00,0.00,VWS V14.01,2013-07-23 09:55:00,
2013-07-23 06:00:00,72.1,67.3,29.74,West,259,0.0,9.0,85,0.00,,CLR,0.00,0.00,VWS V14.01,2013-07-23 10:00:00,
2013-07-23 06:05:00,72.0,67.2,29.74,WSW,244,0.0,3.0,85,0.00,,CLR,0.00,0.00,VWS V14.01,2013-07-23 10:05:00,
2013-07-23 06:10:00,71.8,66.7,29.74,WSW,244,0.0,3.0,84,0.00,,CLR,0.00,0.00,VWS V14.01,2013-07-23 10:10:00,
2013-07-23 06:15:00,71.6,66.9,29.74,SSW,194,0.0,4.0,85,0.00,,CLR,0.00,0.00,VWS V14.01,2013-07-23 10:15:00,
2013-07-23 06:20:00,71.5,67.1,29.74,SSW,194,0.0,4.0,86,0.00,,CLR,0.00,0.00,VWS V14.01,2013-07-23 10:20:00,
2013-07-23 06:25:00,71.3,67.2,29.74,SSW,194,3.0,4.0,87,0.00,,CLR,0.00,0.00,VWS V14.01,2013-07-23 10:25:00,
2013-07-23 06:30:00,71.3,67.2,29.75,SSW,194,0.0,4.0,87,0.00,,CLR,0.00,0.00,VWS V14.01,2013-07-23 10:30:00,
2013-07-23 06:35:00,71.1,67.0,29.75,SSW,194,0.0,3.0,87,0.00,,CLR,0.00,0.00,VWS V14.01,2013-07-23 10:35:00,
2013-07-23 06:40:00,71.3,67.6,29.75,WSW,238,1.0,3.0,88,0.00,,CLR,0.00,7.00,VWS V14.01,2013-07-23 10:40:00,
2013-07-23 06:45:00,71.3,67.2,29.75,WSW,244,2.0,3.0,87,0.00,,CLR,0.00,11.00,VWS V14.01,2013-07-23 10:45:00,
2013-07-23 06:50:00,71.5,67.4,29.75,WSW,244,1.0,3.0,87,0.00,,CLR,0.00,14.00,VWS V14.01,2013-07-23 10:50:00,
2013-07-23 06:55:00,71.3,67.2,29.75,WSW,255,4.0,5.0,87,0.00,,CLR,0.00,21.00,VWS V14.01,2013-07-23 10:55:00,
2013-07-23 07:00:00,71.3,67.2,29.76,West,259,0.0,5.0,87,0.00,,CLR,0.00,40.00,VWS V14.01,2013-07-23 11:00:00,
2013-07-23 07:05:00,71.5,67.1,29.76,West,261,0.0,4.0,86,0.00,,CLR,0.00,39.00,VWS V14.01,2013-07-23 11:05:00,
2013-07-23 07:10:00,71.8,66.7,29.76,WSW,252,2.0,5.0,84,0.00,,CLR,0.00,69.00,VWS V14.01,2013-07-23 11:10:00,
2013-07-23 07:15:00,72.0,66.6,29.76,WSW,257,0.0,8.0,83,0.00,,CLR,0.00,84.00,VWS V14.01,2013-07-23 11:15:00,
2013-07-23 07:20:00,72.3,67.2,29.76,West,261,0.0,8.0,84,0.00,,CLR,0.00,100.00,VWS V14.01,2013-07-23 11:20:00,
2013-07-23 07:25:00,72.5,67.4,29.76,West,261,0.0,8.0,84,0.00,,CLR,0.00,114.00,VWS V14.01,2013-07-23 11:25:00,
2013-07-23 07:30:00,72.5,67.1,29.76,West,264,0.0,8.0,83,0.00,,CLR,0.00,77.00,VWS V14.01,2013-07-23 11:30:00,
2013-07-23 07:35:00,72.5,67.4,29.76,WSW,256,0.0,6.0,84,0.00,,CLR,0.00,105.00,VWS V14.01,2013-07-23 11:35:00,
2013-07-23 07:40:00,72.7,67.6,29.76,WSW,255,0.0,6.0,84,0.00,,CLR,0.00,102.00,VWS V14.01,2013-07-23 11:40:00,
2013-07-23 07:45:00,72.5,67.4,29.76,West,259,0.0,6.0,84,0.00,,CLR,0.00,69.00,VWS V14.01,2013-07-23 11:45:00,
2013-07-23 07:50:00,72.7,67.2,29.76,SW,217,0.0,6.0,83,0.00,,CLR,0.00,88.00,VWS V14.01,2013-07-23 11:50:00,
2013-07-23 07:55:00,72.7,67.2,29.76,West,263,1.0,6.0,83,0.00,,CLR,0.00,93.00,VWS V14.01,2013-07-23 11:55:00,
2013-07-23 08:00:00,72.7,66.9,29.76,West,265,0.0,6.0,82,0.00,,CLR,0.00,139.00,VWS V14.01,2013-07-23 12:00:00,
2013-07-23 08:05:00,72.8,67.3,29.76,West,267,0.0,3.0,83,0.00,,CLR,0.00,211.00,VWS V14.01,2013-07-23 12:05:00,
2013-07-23 08:10:00,73.0,67.5,29.76,WSW,254,1.0,5.0,83,0.00,,CLR,0.00,171.00,VWS V14.01,2013-07-23 12:10:00,
2013-07-23 08:15:00,73.2,66.7,29.76,WSW,248,0.0,13.0,80,0.00,,CLR,0.00,195.00,VWS V14.01,2013-07-23 12:15:00,
2013-07-23 08:20:00,73.3,67.1,29.76,WSW,258,4.0,13.0,81,0.00,,CLR,0.00,237.00,VWS V14.01,2013-07-23 12:20:00,
2013-07-23 08:25:00,73.7,67.2,29.76,West,269,0.0,13.0,80,0.00,,CLR,0.00,281.00,VWS V14.01,2013-07-23 12:25:00,
2013-07-23 08:30:00,73.9,67.3,29.75,West,261,2.0,13.0,80,0.00,,CLR,0.00,295.00,VWS V14.01,2013-07-23 12:30:00,
2013-07-23 08:35:00,74.2,68.4,29.75,West,259,0.0,10.0,82,0.00,,CLR,0.00,311.00,VWS V14.01,2013-07-23 12:35:00,
2013-07-23 08:40:00,74.6,68.0,29.75,WSW,252,0.0,10.0,80,0.00,,CLR,0.00,323.00,VWS V14.01,2013-07-23 12:40:00,
2013-07-23 08:45:00,74.9,67.6,29.75,West,260,1.0,10.0,78,0.00,,CLR,0.00,341.00,VWS V14.01,2013-07-23 12:45:00,
2013-07-23 08:50:00,75.1,68.2,29.75,West,267,0.0,10.0,79,0.00,,CLR,0.00,357.00,VWS V14.01,2013-07-23 12:50:00,
2013-07-23 08:55:00,75.3,68.0,29.75,West,265,0.0,10.0,78,0.00,,CLR,0.00,373.00,VWS V14.01,2013-07-23 12:55:00,
2013-07-23 09:00:00,75.4,68.1,29.75,West,279,1.0,10.0,78,0.00,,CLR,0.00,383.00,VWS V14.01,2013-07-23 13:00:00,
2013-07-23 09:05:00,75.8,68.5,29.75,WNW,285,2.0,6.0,78,0.00,,CLR,0.00,399.00,VWS V14.01,2013-07-23 13:05:00,
2013-07-23 09:10:00,76.3,68.2,29.75,WNW,285,0.0,6.0,76,0.00,,CLR,0.00,415.00,VWS V14.01,2013-07-23 13:10:00,
2013-07-23 09:15:00,77.2,68.7,29.76,West,269,3.0,6.0,75,0.00,,CLR,0.00,429.00,VWS V14.01,2013-07-23 13:15:00,
2013-07-23 09:20:00,77.2,67.9,29.76,WNW,298,0.0,6.0,73,0.00,,CLR,0.00,446.00,VWS V14.01,2013-07-23 13:20:00,
2013-07-23 09:25:00,77.4,68.5,29.76,WSW,257,0.0,6.0,74,0.00,,CLR,0.00,462.00,VWS V14.01,2013-07-23 13:25:00,
2013-07-23 09:30:00,77.6,68.3,29.77,West,266,0.0,6.0,73,0.00,,CLR,0.00,480.00,VWS V14.01,2013-07-23 13:30:00,
2013-07-23 09:35:00,77.6,68.7,29.77,SW,233,0.0,5.0,74,0.00,,CLR,0.00,492.00,VWS V14.01,2013-07-23 13:35:00,
2013-07-23 09:40:00,77.6,68.7,29.77,West,265,2.0,12.0,74,0.00,,CLR,0.00,508.00,VWS V14.01,2013-07-23 13:40:00,
2013-07-23 09:45:00,77.4,68.5,29.76,SW,222,1.0,12.0,74,0.00,,CLR,0.00,526.00,VWS V14.01,2013-07-23 13:45:00,
2013-07-23 09:50:00,77.2,67.5,29.76,West,264,3.0,13.0,72,0.00,,CLR,0.00,540.00,VWS V14.01,2013-07-23 13:50:00,
2013-07-23 09:55:00,77.6,69.1,29.76,West,271,1.0,13.0,75,0.00,,CLR,0.00,555.00,VWS V14.01,2013-07-23 13:55:00,
2013-07-23 10:00:00,77.7,68.0,29.76,WSW,253,1.0,13.0,72,0.00,,CLR,0.00,570.00,VWS V14.01,2013-07-23 14:00:00,
2013-07-23 10:05:00,77.7,68.4,29.76,West,275,5.0,9.0,73,0.00,,CLR,0.00,584.00,VWS V14.01,2013-07-23 14:05:00,
2013-07-23 10:10:00,77.9,68.6,29.76,West,269,3.0,11.0,73,0.00,,CLR,0.00,601.00,VWS V14.01,2013-07-23 14:10:00,
2013-07-23 10:15:00,78.3,68.9,29.76,West,278,0.0,11.0,73,0.00,,CLR,0.00,615.00,VWS V14.01,2013-07-23 14:15:00,
2013-07-23 10:20:00,78.5,68.7,29.76,West,264,1.0,11.0,72,0.00,,CLR,0.00,629.00,VWS V14.01,2013-07-23 14:20:00,
2013-07-23 10:25:00,78.8,68.6,29.76,NNW,340,6.0,11.0,71,0.00,,CLR,0.00,642.00,VWS V14.01,2013-07-23 14:25:00,
2013-07-23 10:30:00,79.2,69.4,29.76,South,170,4.0,11.0,72,0.00,,CLR,0.00,656.00,VWS V14.01,2013-07-23 14:30:00,
2013-07-23 10:35:00,79.6,68.5,29.76,West,277,6.0,6.0,69,0.00,,CLR,0.00,670.00,VWS V14.01,2013-07-23 14:35:00,
2013-07-23 10:40:00,79.6,68.1,29.76,West,262,3.0,11.0,68,0.00,,CLR,0.00,684.00,VWS V14.01,2013-07-23 14:40:00,
2013-07-23 10:45:00,79.6,68.1,29.76,West,276,3.0,12.0,68,0.00,,CLR,0.00,694.00,VWS V14.01,2013-07-23 14:45:00,
2013-07-23 10:50:00,79.8,68.7,29.76,West,261,1.0,12.0,69,0.00,,CLR,0.00,707.00,VWS V14.01,2013-07-23 14:50:00,
2013-07-23 10:55:00,80.1,67.7,29.76,West,281,2.0,12.0,66,0.00,,CLR,0.00,721.00,VWS V14.01,2013-07-23 14:55:00,
2013-07-23 11:00:00,80.3,68.8,29.76,West,273,1.0,12.0,68,0.00,,CLR,0.00,733.00,VWS V14.01,2013-07-23 15:00:00,
2013-07-23 11:05:00,80.7,67.4,29.76,West,274,4.0,5.0,64,0.00,,CLR,0.00,749.00,VWS V14.01,2013-07-23 15:05:00,
2013-07-23 11:10:00,80.9,68.5,29.76,West,273,0.0,6.0,66,0.00,,CLR,0.00,759.00,VWS V14.01,2013-07-23 15:10:00,
2013-07-23 11:15:00,81.2,69.2,29.76,WSW,238,0.0,6.0,67,0.00,,CLR,0.00,768.00,VWS V14.01,2013-07-23 15:15:00,
2013-07-23 11:20:00,81.8,69.3,29.76,West,275,1.0,6.0,66,0.00,,CLR,0.00,777.00,VWS V14.01,2013-07-23 15:20:00,
2013-07-23 11:25:00,82.0,69.1,29.76,West,259,0.0,6.0,65,0.00,,CLR,0.00,791.00,VWS V14.01,2013-07-23 15:25:00,
2013-07-23 11:30:00,82.0,69.5,29.77,SW,234,0.0,6.0,66,0.00,,CLR,0.00,803.00,VWS V14.01,2013-07-23 15:30:00,
2013-07-23 11:35:00,82.0,68.6,29.77,West,275,3.0,8.0,64,0.00,,CLR,0.00,814.00,VWS V14.01,2013-07-23 15:35:00,
2013-07-23 11:40:00,82.2,68.4,29.77,West,261,0.0,8.0,63,0.00,,CLR,0.00,821.00,VWS V14.01,2013-07-23 15:40:00,
2013-07-23 11:45:00,82.4,67.6,29.77,SSE,162,0.0,8.0,61,0.00,,CLR,0.00,800.00,VWS V14.01,2013-07-23 15:45:00,
2013-07-23 11:50:00,83.0,69.1,29.77,SE,146,0.0,8.0,63,0.00,,CLR,0.00,849.00,VWS V14.01,2013-07-23 15:50:00,
2013-07-23 11:55:00,83.6,68.7,29.77,SSE,164,1.0,8.0,61,0.00,,CLR,0.00,856.00,VWS V14.01,2013-07-23 15:55:00,
2013-07-23 12:00:00,83.4,69.5,29.76,West,264,2.0,8.0,63,0.00,,CLR,0.00,858.00,VWS V14.01,2013-07-23 16:00:00,
2013-07-23 12:05:00,83.0,69.6,29.76,West,262,3.0,10.0,64,0.00,,CLR,0.00,861.00,VWS V14.01,2013-07-23 16:05:00,
2013-07-23 12:10:00,83.0,70.0,29.76,NW,309,2.0,10.0,65,0.00,,CLR,0.00,861.00,VWS V14.01,2013-07-23 16:10:00,
2013-07-23 12:15:00,83.2,70.7,29.76,West,264,0.0,10.0,66,0.00,,CLR,0.00,872.00,VWS V14.01,2013-07-23 16:15:00,
2013-07-23 12:20:00,84.0,70.5,29.76,ESE,107,0.0,10.0,64,0.00,,CLR,0.00,882.00,VWS V14.01,2013-07-23 16:20:00,
2013-07-23 12:25:00,84.5,71.0,29.76,WNW,283,5.0,10.0,64,0.00,,CLR,0.00,875.00,VWS V14.01,2013-07-23 16:25:00,
2013-07-23 12:30:00,84.3,69.9,29.76,West,274,1.0,10.0,62,0.00,,CLR,0.00,895.00,VWS V14.01,2013-07-23 16:30:00,
2013-07-23 12:35:00,84.1,70.2,29.76,West,275,1.0,6.0,63,0.00,,CLR,0.00,898.00,VWS V14.01,2013-07-23 16:35:00,
2013-07-23 12:40:00,84.1,70.2,29.76,West,280,0.0,6.0,63,0.00,,CLR,0.00,904.00,VWS V14.01,2013-07-23 16:40:00,
2013-07-23 12:45:00,84.1,70.2,29.76,WSW,257,0.0,10.0,63,0.00,,CLR,0.00,912.00,VWS V14.01,2013-07-23 16:45:00,
2013-07-23 12:50:00,84.1,69.2,29.76,SSW,192,0.0,10.0,61,0.00,,CLR,0.00,921.00,VWS V14.01,2013-07-23 16:50:00,
2013-07-23 12:55:00,84.3,69.9,29.76,West,263,1.0,10.0,62,0.00,,CLR,0.00,914.00,VWS V14.01,2013-07-23 16:55:00,
2013-07-23 13:00:00,84.3,69.4,29.76,SSW,192,0.0,10.0,61,0.00,,CLR,0.00,928.00,VWS V14.01,2013-07-23 17:00:00,
2013-07-23 13:05:00,84.9,70.0,29.76,WSW,246,0.0,14.0,61,0.00,,CLR,0.00,960.00,VWS V14.01,2013-07-23 17:05:00,
2013-07-23 13:10:00,85.1,70.6,29.76,South,171,0.0,14.0,62,0.00,,CLR,0.00,1041.00,VWS V14.01,2013-07-23 17:10:00,
2013-07-23 13:15:00,85.5,70.0,29.75,SSW,213,2.0,14.0,60,0.00,,CLR,0.00,993.00,VWS V14.01,2013-07-23 17:15:00,
2013-07-23 13:20:00,85.3,70.8,29.75,West,273,0.0,14.0,62,0.00,,CLR,0.00,937.00,VWS V14.01,2013-07-23 17:20:00,
2013-07-23 13:25:00,85.3,70.8,29.75,WSW,244,1.0,14.0,62,0.00,,CLR,0.00,779.00,VWS V14.01,2013-07-23 17:25:00,
2013-07-23 13:30:00,85.5,69.6,29.74,West,280,5.0,14.0,59,0.00,,CLR,0.00,939.00,VWS V14.01,2013-07-23 17:30:00,
2013-07-23 13:35:00,85.7,68.2,29.74,West,267,0.0,6.0,56,0.00,,CLR,0.00,889.00,VWS V14.01,2013-07-23 17:35:00,
2013-07-23 13:40:00,85.7,70.2,29.74,West,262,5.0,9.0,60,0.00,,CLR,0.00,916.00,VWS V14.01,2013-07-23 17:40:00,
2013-07-23 13:45:00,85.7,69.2,29.73,SW,221,2.0,9.0,58,0.00,,CLR,0.00,923.00,VWS V14.01,2013-07-23 17:45:00,
2013-07-23 13:50:00,85.7,69.2,29.73,West,278,5.0,15.0,58,0.00,,CLR,0.00,925.00,VWS V14.01,2013-07-23 17:50:00,
2013-07-23 13:56:00,85.3,69.8,29.73,West,281,6.0,15.0,60,0.00,,CLR,0.00,930.00,VWS V14.01,2013-07-23 17:56:00,
2013-07-23 14:00:00,84.5,69.6,29.76,West,266,1.0,10.0,61,0.00,,OVC065,0.00,932.00,VWS V14.01,2013-07-23 18:00:00,
2013-07-23 14:01:00,85.3,68.9,29.72,WNW,291,10.0,15.0,58,0.00,,CLR,0.00,925.00,VWS V14.01,2013-07-23 18:01:00,
2013-07-23 14:06:00,85.3,69.8,29.72,West,277,0.0,10.0,60,0.00,,CLR,0.00,919.00,VWS V14.01,2013-07-23 18:06:00,
2013-07-23 14:11:00,85.5,69.1,29.72,WSW,250,5.0,10.0,58,0.00,,CLR,0.00,921.00,VWS V14.01,2013-07-23 18:11:00,
2013-07-23 14:16:00,85.5,70.5,29.71,ENE,61,1.0,10.0,61,0.00,,CLR,0.00,919.00,VWS V14.01,2013-07-23 18:16:00,
2013-07-23 14:21:00,85.7,69.2,29.71,WSW,255,3.0,11.0,58,0.00,,CLR,0.00,911.00,VWS V14.01,2013-07-23 18:21:00,
2013-07-23 14:26:00,85.9,69.9,29.71,WNW,285,2.0,11.0,59,0.00,,CLR,0.00,912.00,VWS V14.01,2013-07-23 18:26:00,
2013-07-23 14:30:00,85.5,69.6,29.74,West,278,1.0,14.0,59,0.00,,OVC065,0.00,939.00,VWS V14.01,2013-07-23 18:30:00,
2013-07-23 14:31:00,85.9,69.9,29.71,SW,219,2.0,3.0,59,0.00,,CLR,0.00,904.00,VWS V14.01,2013-07-23 18:31:00,
2013-07-23 14:36:00,86.1,70.6,29.71,WSW,252,3.0,6.0,60,0.00,,CLR,0.00,893.00,VWS V14.01,2013-07-23 18:36:00,
2013-07-23 14:42:00,86.3,71.3,29.71,West,281,0.0,6.0,61,0.00,,CLR,0.00,912.00,VWS V14.01,2013-07-23 18:42:00,
2013-07-23 14:47:00,86.5,71.0,29.71,WNW,300,4.0,10.0,60,0.00,,CLR,0.00,884.00,VWS V14.01,2013-07-23 18:47:00,
2013-07-23 14:52:00,86.7,71.2,29.71,South,183,0.0,13.0,60,0.00,,CLR,0.00,888.00,VWS V14.01,2013-07-23 18:52:00,
2013-07-23 14:57:00,87.0,71.4,29.71,SSE,152,3.0,13.0,60,0.00,,CLR,0.00,909.00,VWS V14.01,2013-07-23 18:57:00,
2013-07-23 15:00:00,85.3,68.9,29.72,WNW,291,10.0,15.0,58,0.00,,OVC065,0.00,925.00,VWS V14.01,2013-07-23 19:00:00,
2013-07-23 15:02:00,87.2,71.1,29.71,West,262,0.0,6.0,59,0.00,,FEW043,0.00,905.00,VWS V14.01,2013-07-23 19:02:00,
2013-07-23 15:07:00,87.4,72.8,29.71,East,101,0.0,6.0,62,0.00,,FEW043,0.00,888.00,VWS V14.01,2013-07-23 19:07:00,
2013-07-23 15:13:00,87.4,72.3,29.71,WNW,284,0.0,6.0,61,0.00,,FEW043,0.00,882.00,VWS V14.01,2013-07-23 19:13:00,
2013-07-23 15:18:00,87.0,72.9,29.69,South,190,2.0,6.0,63,0.00,,FEW043,0.00,844.00,VWS V14.01,2013-07-23 19:18:00,
2013-07-23 15:23:00,87.0,71.9,29.69,WNW,284,0.0,6.0,61,0.00,,FEW043,0.00,884.00,VWS V14.01,2013-07-23 19:23:00,
2013-07-23 15:28:00,87.4,73.3,29.69,SSE,149,1.0,6.0,63,0.00,,FEW043,0.00,898.00,VWS V14.01,2013-07-23 19:28:00,
2013-07-23 15:30:00,85.7,70.2,29.71,SW,234,3.0,11.0,60,0.00,,OVC065,0.00,907.00,VWS V14.01,2013-07-23 19:30:00,
2013-07-23 15:33:00,87.2,73.1,29.69,WSW,246,1.0,7.0,63,0.00,,FEW043,0.00,865.00,VWS V14.01,2013-07-23 19:33:00,
2013-07-23 15:38:00,86.7,72.1,29.69,WNW,286,1.0,12.0,62,0.00,,FEW043,0.00,846.00,VWS V14.01,2013-07-23 19:38:00,
2013-07-23 15:43:00,86.1,72.5,29.69,WSW,241,0.0,15.0,64,0.00,,FEW043,0.00,798.00,VWS V14.01,2013-07-23 19:43:00,
2013-07-23 15:48:00,86.1,72.0,29.68,NW,323,0.0,15.0,63,0.00,,FEW043,0.00,649.00,VWS V14.01,2013-07-23 19:48:00,
2013-07-23 15:53:00,86.3,72.7,29.68,SSE,168,0.0,15.0,64,0.00,,FEW043,0.00,489.00,VWS V14.01,2013-07-23 19:53:00,
2013-07-23 15:58:00,86.5,72.4,29.68,South,178,0.0,15.0,63,0.00,,FEW043,0.00,538.00,VWS V14.01,2013-07-23 19:58:00,
2013-07-23 16:00:00,87.2,71.6,29.71,WNW,296,4.0,13.0,60,0.00,,OVC065,0.00,905.00,VWS V14.01,2013-07-23 20:00:00,
2013-07-23 16:03:00,86.5,72.4,29.68,SSE,166,0.0,7.0,63,0.00,,CLR,0.00,629.00,VWS V14.01,2013-07-23 20:03:00,
2013-07-23 16:09:00,86.7,72.6,29.68,West,264,1.0,11.0,63,0.00,,CLR,0.00,545.00,VWS V14.01,2013-07-23 20:09:00,
2013-07-23 16:14:00,86.1,73.0,29.68,South,178,0.0,11.0,65,0.00,,CLR,0.00,459.00,VWS V14.01,2013-07-23 20:14:00,
2013-07-23 16:19:00,86.1,73.0,29.68,NW,321,4.0,11.0,65,0.00,,CLR,0.00,378.00,VWS V14.01,2013-07-23 20:19:00,
2013-07-23 16:24:00,85.9,73.2,29.68,WNW,292,5.0,11.0,66,0.00,,CLR,0.00,355.00,VWS V14.01,2013-07-23 20:24:00,
2013-07-23 16:29:00,85.3,73.6,29.68,West,280,2.0,11.0,68,0.00,,CLR,0.00,345.00,VWS V14.01,2013-07-23 20:29:00,
2013-07-23 16:30:00,87.4,71.8,29.69,WNW,285,4.0,10.0,60,0.00,,OVC065,0.00,884.00,VWS V14.01,2013-07-23 20:30:00,
2013-07-23 16:34:00,84.9,73.6,29.67,WNW,288,3.0,4.0,69,0.00,,CLR,0.00,329.00,VWS V14.01,2013-07-23 20:34:00,
2013-07-23 16:39:00,84.7,73.4,29.67,East,95,0.0,6.0,69,0.00,,CLR,0.00,302.00,VWS V14.01,2013-07-23 20:39:00,
2013-07-23 17:00:00,86.3,72.7,29.68,SSW,205,0.0,15.0,64,0.00,,OVC065,0.00,515.00,VWS V14.01,2013-07-23 21:00:00,
2013-07-23 17:30:00,85.3,73.6,29.67,WSW,255,4.0,11.0,68,0.00,,OVC065,0.00,339.00,VWS V14.01,2013-07-23 21:30:00,
2013-07-23 17:34:00,83.6,73.6,29.67,West,275,1.0,9.0,72,0.00,,CLR,0.00,214.00,VWS V14.01,2013-07-23 21:34:00,
2013-07-23 17:39:00,83.2,72.8,29.67,WNW,289,4.0,9.0,71,0.00,,CLR,0.00,204.00,VWS V14.01,2013-07-23 21:39:00,
2013-07-23 17:44:00,83.0,73.1,29.67,SSE,152,0.0,10.0,72,0.00,,CLR,0.00,209.00,VWS V14.01,2013-07-23 21:44:00,
2013-07-23 18:00:00,84.5,73.2,29.66,West,273,2.0,7.0,69,0.00,,OVC065,0.00,299.00,VWS V14.01,2013-07-23 22:00:00,
2013-07-23 18:30:00,83.8,73.0,29.67,WSW,250,0.0,7.0,70,0.00,,OVC065,0.00,214.00,VWS V14.01,2013-07-23 22:30:00,
2013-07-23 19:00:00,83.0,72.6,29.66,SSE,167,1.0,10.0,71,0.00,,OVC065,0.00,243.00,VWS V14.01,2013-07-23 23:00:00,
2013-07-23 19:30:00,83.4,73.0,29.65,SE,127,0.0,9.0,71,0.00,,OVC065,0.00,325.00,VWS V14.01,2013-07-23 23:30:00,
2013-07-23 20:00:00,84.3,73.0,29.65,SSW,198,0.0,2.0,69,0.00,,OVC065,0.00,225.00,VWS V14.01,2013-07-24 00:00:00,
2013-07-23 20:30:00,84.3,73.9,29.65,West,279,0.0,8.0,71,0.00,,OVC065,0.00,190.00,VWS V14.01,2013-07-24 00:30:00,
2013-07-23 21:00:00,83.4,70.0,29.66,SSW,196,0.0,5.0,64,0.00,,OVC065,0.00,25.00,VWS V14.01,2013-07-24 01:00:00,
2013-07-23 21:09:00,79.4,70.0,29.68,WSW,253,0.0,0.0,73,0.00,,CLR,0.00,0.00,VWS V14.01,2013-07-24 01:09:00,
2013-07-23 21:14:00,79.4,70.0,29.68,SSW,192,0.0,3.0,73,0.00,,CLR,0.00,0.00,VWS V14.01,2013-07-24 01:14:00,
2013-07-23 21:19:00,79.2,70.2,29.68,South,190,0.0,3.0,74,0.00,,CLR,0.00,0.00,VWS V14.01,2013-07-24 01:19:00,
2013-07-23 21:24:00,79.2,71.0,29.68,South,190,0.0,3.0,76,0.00,,CLR,0.00,0.00,VWS V14.01,2013-07-24 01:24:00,
2013-07-23 21:29:00,79.2,71.4,29.68,South,188,0.0,3.0,77,0.00,,CLR,0.00,0.00,VWS V14.01,2013-07-24 01:29:00,
2013-07-23 21:30:00,80.9,70.2,29.67,West,269,0.0,5.0,70,0.00,,OVC065,0.00,7.00,VWS V14.01,2013-07-24 01:30:00,
2013-07-23 21:34:00,79.2,71.8,29.68,South,187,0.0,0.0,78,0.00,,CLR,0.00,0.00,VWS V14.01,2013-07-24 01:34:00,
2013-07-23 21:39:00,79.0,71.9,29.68,WSW,250,0.0,3.0,79,0.00,,CLR,0.00,0.00,VWS V14.01,2013-07-24 01:39:00,
2013-07-23 21:44:00,78.8,71.7,29.68,WSW,249,0.0,3.0,79,0.00,,CLR,0.00,0.00,VWS V14.01,2013-07-24 01:44:00,
2013-07-23 21:49:00,78.8,72.1,29.68,WSW,249,0.0,3.0,80,0.00,,CLR,0.00,0.00,VWS V14.01,2013-07-24 01:49:00,
2013-07-23 21:54:00,78.6,71.9,29.68,SW,233,0.0,3.0,80,0.00,,CLR,0.00,0.00,VWS V14.01,2013-07-24 01:54:00,
2013-07-23 22:00:00,78.5,71.8,29.68,SW,233,0.0,3.0,80,0.00,,CLR,0.00,0.00,VWS V14.01,2013-07-24 02:00:00,
2013-07-23 22:05:00,78.5,72.6,29.68,WSW,244,0.0,0.0,82,0.00,,CLR,0.00,0.00,VWS V14.01,2013-07-24 02:05:00,
2013-07-23 22:10:00,78.3,72.4,29.68,WSW,255,0.0,6.0,82,0.00,,CLR,0.00,0.00,VWS V14.01,2013-07-24 02:10:00,
2013-07-23 22:15:00,78.1,72.2,29.68,WNW,284,2.0,6.0,82,0.00,,CLR,0.00,0.00,VWS V14.01,2013-07-24 02:15:00,
2013-07-23 22:20:00,77.9,71.6,29.68,West,269,0.0,6.0,81,0.00,,CLR,0.00,0.00,VWS V14.01,2013-07-24 02:20:00,
2013-07-23 22:25:00,77.7,71.8,29.68,West,267,0.0,6.0,82,0.00,,CLR,0.00,0.00,VWS V14.01,2013-07-24 02:25:00,
2013-07-23 22:30:00,77.6,71.7,29.69,WSW,258,0.0,6.0,82,0.00,,CLR,0.00,0.00,VWS V14.01,2013-07-24 02:30:00,
2013-07-23 22:35:00,77.6,72.0,29.69,West,261,0.0,4.0,83,0.00,,CLR,0.00,0.00,VWS V14.01,2013-07-24 02:35:00,
2013-07-23 22:40:00,77.4,71.5,29.69,West,261,0.0,4.0,82,0.00,,CLR,0.00,0.00,VWS V14.01,2013-07-24 02:40:00,
2013-07-23 22:45:00,77.2,71.6,29.69,West,279,0.0,4.0,83,0.00,,CLR,0.00,0.00,VWS V14.01,2013-07-24 02:45:00,
2013-07-23 22:50:00,77.0,71.4,29.69,West,259,0.0,9.0,83,0.00,,CLR,0.00,0.00,VWS V14.01,2013-07-24 02:50:00,
2013-07-23 22:55:00,76.8,71.2,29.69,West,263,0.0,9.0,83,0.00,,CLR,0.00,0.00,VWS V14.01,2013-07-24 02:55:00,
2013-07-23 23:00:00,76.8,71.2,29.69,West,263,0.0,9.0,83,0.00,,CLR,0.00,0.00,VWS V14.01,2013-07-24 03:00:00,
2013-07-23 23:05:00,76.7,71.2,29.69,West,263,1.0,4.0,83,0.00,,CLR,0.00,0.00,VWS V14.01,2013-07-24 03:05:00,
2013-07-23 23:11:00,76.7,71.2,29.69,West,263,0.0,4.0,83,0.00,,CLR,0.00,0.00,VWS V14.01,2013-07-24 03:11:00,
2013-07-23 23:16:00,76.5,71.0,29.69,West,263,0.0,4.0,83,0.00,,CLR,0.00,0.00,VWS V14.01,2013-07-24 03:16:00,
2013-07-23 23:21:00,76.5,71.0,29.69,West,263,0.0,4.0,83,0.00,,CLR,0.00,0.00,VWS V14.01,2013-07-24 03:21:00,
2013-07-23 23:26:00,76.3,71.1,29.69,West,263,0.0,4.0,84,0.00,,CLR,0.00,0.00,VWS V14.01,2013-07-24 03:26:00,
2013-07-23 23:30:00,77.6,71.7,29.69,West,259,0.0,6.0,82,0.00,,OVC065,0.00,0.00,VWS V14.01,2013-07-24 03:30:00,
2013-07-23 23:31:00,76.1,70.9,29.69,West,263,0.0,1.0,84,0.00,,CLR,0.00,0.00,VWS V14.01,2013-07-24 03:31:00,
2013-07-23 23:36:00,76.1,70.9,29.69,West,264,0.0,3.0,84,0.00,,CLR,0.00,0.00,VWS V14.01,2013-07-24 03:36:00,
2013-07-23 23:41:00,76.0,70.8,29.69,West,263,0.0,3.0,84,0.00,,CLR,0.00,0.00,VWS V14.01,2013-07-24 03:41:00,
2013-07-23 23:46:00,76.0,71.2,29.69,West,263,0.0,3.0,85,0.00,,CLR,0.00,0.00,VWS V14.01,2013-07-24 03:46:00,
2013-07-23 23:52:00,75.8,71.0,29.69,West,263,0.0,3.0,85,0.00,,CLR,0.00,0.00,VWS V14.01,2013-07-24 03:52:00,
2013-07-23 23:57:00,75.8,71.0,29.69,West,263,0.0,3.0,85,0.00,,CLR,0.00,0.00,VWS V14.01,2013-07-24 03:57:00,